{"data":{"norad_id":63736,"epoch":"2026-09-21T09:18:04.127328Z","epoch_age_seconds":128440,"freshness":"FRESH","line1":"1 63736U 25088N   26264.38754777  .00000552  00000+0  10138-3 0  9993","line2":"2 63736  51.9005 317.6856 0000497  87.0625 273.0394 14.79935017 76479","mean_motion":14.79935017,"eccentricity":4.97e-5,"inclination_deg":51.9005,"raan_deg":317.6856,"arg_perigee_deg":87.0625,"mean_anomaly_deg":273.0394,"bstar":0.00010138,"rev_number":7647,"period_min":97.301569559388,"perigee_km":629.18098099982,"apogee_km":629.87754302626,"semimajor_km":7007.666262013,"source":"CELESTRAK","updated_at":"2026-09-22T09:00:29.318369Z"}}